Meteo pe oră la Maan

Astăzi, 24 Octombrie, Sâmbătă

Timp Temperatura Precipitaţii Vânt Presiune Umiditate
00:00 +13°C° 0 mm 2 m/s 636 mmHg 24%
01:00 +13°C° 0 mm 2 m/s 636 mmHg 25%
02:00 +13°C° 0 mm 2 m/s 635 mmHg 26%
03:00 +12°C° 0 mm 3 m/s 635 mmHg 26%
04:00 +12°C° 0 mm 3 m/s 635 mmHg 26%
05:00 +12°C° 0 mm 4 m/s 635 mmHg 26%
06:00 +14°C° 0 mm 5 m/s 636 mmHg 23%
07:00 +17°C° 0 mm 6 m/s 637 mmHg 19%
08:00 +20°C° 0 mm 7 m/s 638 mmHg 16%
09:00 +22°C° 0 mm 8 m/s 639 mmHg 14%
10:00 +24°C° 0 mm 8 m/s 639 mmHg 12%
11:00 +26°C° 0 mm 9 m/s 639 mmHg 10%
12:00 +27°C° 0 mm 8 m/s 639 mmHg 10%
13:00 +27°C° 0 mm 6 m/s 638 mmHg 9%
14:00 +28°C° 0 mm 5 m/s 638 mmHg 9%
15:00 +25°C° 0 mm 4 m/s 637 mmHg 11%
16:00 +21°C° 0 mm 3 m/s 636 mmHg 14%
17:00 +18°C° 0 mm 2 m/s 635 mmHg 16%
18:00 +18°C° 0 mm 1 m/s 635 mmHg 25%
19:00 +15°C° 0 mm 1 m/s 635 mmHg 35%
20:00 +14°C° 0 mm 1 m/s 635 mmHg 44%
21:00 +14°C° 0 mm 1 m/s 635 mmHg 43%
22:00 +14°C° 0 mm 1 m/s 635 mmHg 42%
23:00 +13°C° 0 mm 1 m/s 635 mmHg 41%

Mâine, 25 Octombrie, Duminică

Timp Temperatura Precipitaţii Vânt Presiune Umiditate
00:00 +14°C° 0 mm 1 m/s 635 mmHg 41%
01:00 +14°C° 0 mm 1 m/s 635 mmHg 41%
02:00 +15°C° 0 mm 2 m/s 635 mmHg 41%
03:00 +14°C° 0 mm 1 m/s 634 mmHg 43%
04:00 +13°C° 0 mm 1 m/s 634 mmHg 44%
05:00 +13°C° 0 mm 1 m/s 634 mmHg 46%
06:00 +14°C° 0 mm 1 m/s 635 mmHg 42%
07:00 +16°C° 0 mm 1 m/s 636 mmHg 39%
08:00 +19°C° 0 mm 1 m/s 636 mmHg 36%
09:00 +19°C° 0 mm 2 m/s 637 mmHg 33%
10:00 +20°C° 0 mm 2 m/s 637 mmHg 30%
11:00 +22°C° 0 mm 3 m/s 637 mmHg 27%
12:00 +24°C° 0 mm 3 m/s 637 mmHg 25%
13:00 +24°C° 0 mm 3 m/s 637 mmHg 23%
14:00 +25°C° 0 mm 3 m/s 636 mmHg 21%
15:00 +22°C° 0 mm 3 m/s 636 mmHg 29%
16:00 +20°C° 0 mm 3 m/s 635 mmHg 37%
17:00 +17°C° 0 mm 3 m/s 634 mmHg 45%
18:00 +16°C° 0 mm 2 m/s 634 mmHg 53%
19:00 +15°C° 0 mm 2 m/s 634 mmHg 61%
20:00 +13°C° 0 mm 1 m/s 634 mmHg 68%
21:00 +13°C° 0 mm 1 m/s 634 mmHg 67%
22:00 +12°C° 0 mm 1 m/s 634 mmHg 66%
23:00 +12°C° 0 mm 1 m/s 634 mmHg 65%

Poimâine, 26 Octombrie, Luni

Timp Temperatura Precipitaţii Vânt Presiune Umiditate
00:00 +12°C° 0 mm 1 m/s 634 mmHg 61%
01:00 +11°C° 0 mm 1 m/s 634 mmHg 56%
02:00 +10°C° 0 mm 2 m/s 634 mmHg 51%
03:00 +10°C° 0 mm 2 m/s 634 mmHg 48%
04:00 +10°C° 0 mm 2 m/s 634 mmHg 45%
05:00 +10°C° 0 mm 2 m/s 634 mmHg 43%
06:00 +13°C° 0 mm 2 m/s 635 mmHg 38%
07:00 +15°C° 0 mm 2 m/s 636 mmHg 34%
08:00 +17°C° 0 mm 2 m/s 637 mmHg 29%
09:00 +19°C° 0 mm 2 m/s 637 mmHg 26%
10:00 +21°C° 0 mm 2 m/s 638 mmHg 23%
11:00 +24°C° 0 mm 2 m/s 638 mmHg 20%
12:00 +24°C° 0 mm 3 m/s 638 mmHg 19%
13:00 +25°C° 0 mm 3 m/s 638 mmHg 18%
14:00 +26°C° 0 mm 3 m/s 637 mmHg 17%
15:00 +22°C° 0 mm 3 m/s 637 mmHg 24%
16:00 +19°C° 0 mm 2 m/s 636 mmHg 31%
17:00 +16°C° 0 mm 2 m/s 635 mmHg 38%
18:00 +15°C° 0 mm 2 m/s 635 mmHg 43%
19:00 +14°C° 0 mm 1 m/s 635 mmHg 47%
20:00 +13°C° 0 mm 1 m/s 635 mmHg 52%
21:00 +13°C° 0 mm 1 m/s 635 mmHg 52%
22:00 +13°C° 0 mm 1 m/s 635 mmHg 51%
23:00 +12°C° 0 mm 1 m/s 635 mmHg 51%

, 27 Octombrie, Marţi

Timp Temperatura Precipitaţii Vânt Presiune Umiditate
00:00 +12°C° 0 mm 1 m/s 634 mmHg 54%
01:00 +12°C° 0 mm 1 m/s 634 mmHg 57%
02:00 +11°C° 0 mm 1 m/s 634 mmHg 59%
03:00 +11°C° 0 mm 1 m/s 634 mmHg 59%
04:00 +11°C° 0 mm 1 m/s 634 mmHg 59%
05:00 +11°C° 0 mm 1 m/s 634 mmHg 59%
06:00 +14°C° 0 mm 1 m/s 635 mmHg 49%
07:00 +18°C° 0 mm 1 m/s 637 mmHg 38%
08:00 +21°C° 0 mm 1 m/s 638 mmHg 28%
09:00 +23°C° 0 mm 2 m/s 639 mmHg 25%
10:00 +25°C° 0 mm 3 m/s 639 mmHg 21%
11:00 +26°C° 0 mm 4 m/s 640 mmHg 18%
12:00 +27°C° 0 mm 5 m/s 639 mmHg 18%
13:00 +27°C° 0 mm 5 m/s 639 mmHg 17%
14:00 +28°C° 0 mm 6 m/s 639 mmHg 17%
15:00 +25°C° 0 mm 5 m/s 638 mmHg 22%
16:00 +22°C° 0 mm 3 m/s 637 mmHg 27%
17:00 +19°C° 0 mm 2 m/s 636 mmHg 32%
18:00 +19°C° 0 mm 1 m/s 636 mmHg 36%
19:00 +16°C° 0 mm 1 m/s 636 mmHg 40%
20:00 +14°C° 0 mm 0 m/s 635 mmHg 43%
21:00 +13°C° 0 mm 0 m/s 635 mmHg 46%
22:00 +13°C° 0 mm 0 m/s 635 mmHg 48%
23:00 +13°C° 0 mm 0 m/s 635 mmHg 51%

27 Octombrie, Marţi

Timp Temperatura Precipitaţii Vânt Presiune Umiditate
00:00 +12°C° 0 mm 1 m/s 634 mmHg 54%
01:00 +12°C° 0 mm 1 m/s 634 mmHg 57%
02:00 +11°C° 0 mm 1 m/s 634 mmHg 59%
03:00 +11°C° 0 mm 1 m/s 634 mmHg 59%
04:00 +11°C° 0 mm 1 m/s 634 mmHg 59%
05:00 +11°C° 0 mm 1 m/s 634 mmHg 59%
06:00 +14°C° 0 mm 1 m/s 635 mmHg 49%
07:00 +18°C° 0 mm 1 m/s 637 mmHg 38%
08:00 +21°C° 0 mm 1 m/s 638 mmHg 28%
09:00 +23°C° 0 mm 2 m/s 639 mmHg 25%
10:00 +25°C° 0 mm 3 m/s 639 mmHg 21%
11:00 +26°C° 0 mm 4 m/s 640 mmHg 18%
12:00 +27°C° 0 mm 5 m/s 639 mmHg 18%
13:00 +27°C° 0 mm 5 m/s 639 mmHg 17%
14:00 +28°C° 0 mm 6 m/s 639 mmHg 17%
15:00 +25°C° 0 mm 5 m/s 638 mmHg 22%
16:00 +22°C° 0 mm 3 m/s 637 mmHg 27%
17:00 +19°C° 0 mm 2 m/s 636 mmHg 32%
18:00 +19°C° 0 mm 1 m/s 636 mmHg 36%
19:00 +16°C° 0 mm 1 m/s 636 mmHg 40%
20:00 +14°C° 0 mm 0 m/s 635 mmHg 43%
21:00 +13°C° 0 mm 0 m/s 635 mmHg 46%
22:00 +13°C° 0 mm 0 m/s 635 mmHg 48%
23:00 +13°C° 0 mm 0 m/s 635 mmHg 51%

28 Octombrie, Miercuri

Timp Temperatura Precipitaţii Vânt Presiune Umiditate
00:00 +12°C° 0 mm 0 m/s 635 mmHg 54%
01:00 +13°C° 0 mm 1 m/s 635 mmHg 58%
02:00 +13°C° 0 mm 1 m/s 635 mmHg 61%
03:00 +12°C° 0 mm 1 m/s 635 mmHg 64%
04:00 +12°C° 0 mm 1 m/s 635 mmHg 66%
05:00 +12°C° 0 mm 1 m/s 635 mmHg 68%
06:00 +15°C° 0 mm 1 m/s 636 mmHg 55%
07:00 +19°C° 0 mm 1 m/s 637 mmHg 43%
08:00 +22°C° 0 mm 1 m/s 639 mmHg 30%
09:00 +23°C° 0 mm 2 m/s 639 mmHg 27%
10:00 +25°C° 0 mm 3 m/s 640 mmHg 23%
11:00 +27°C° 0 mm 4 m/s 640 mmHg 20%
12:00 +27°C° 0 mm 4 m/s 640 mmHg 20%
13:00 +27°C° 0 mm 4 m/s 639 mmHg 20%
14:00 +27°C° 0 mm 4 m/s 639 mmHg 20%
15:00 +25°C° 0 mm 3 m/s 638 mmHg 26%
16:00 +21°C° 0 mm 2 m/s 638 mmHg 31%
17:00 +19°C° 0 mm 2 m/s 637 mmHg 37%
18:00 +18°C° 0 mm 2 m/s 637 mmHg 40%
19:00 +17°C° 0 mm 2 m/s 637 mmHg 42%
20:00 +16°C° 0 mm 2 m/s 637 mmHg 45%
21:00 +15°C° 0 mm 1 m/s 637 mmHg 49%
22:00 +15°C° 0 mm 1 m/s 637 mmHg 52%
23:00 +14°C° 0 mm 1 m/s 637 mmHg 56%

29 Octombrie, Joi

Timp Temperatura Precipitaţii Vânt Presiune Umiditate
00:00 +13°C° 0 mm 1 m/s 636 mmHg 59%
01:00 +13°C° 0 mm 1 m/s 636 mmHg 62%
02:00 +12°C° 0 mm 1 m/s 636 mmHg 65%
03:00 +11°C° 0 mm 0 m/s 636 mmHg 66%
04:00 +11°C° 0 mm 0 m/s 636 mmHg 68%
05:00 +11°C° 0 mm 0 m/s 636 mmHg 69%
06:00 +15°C° 0 mm 1 m/s 637 mmHg 57%
07:00 +19°C° 0 mm 1 m/s 638 mmHg 44%
08:00 +22°C° 0 mm 1 m/s 640 mmHg 32%
09:00 +23°C° 0 mm 2 m/s 640 mmHg 28%
10:00 +25°C° 0 mm 2 m/s 641 mmHg 24%
11:00 +26°C° 0 mm 3 m/s 641 mmHg 21%
12:00 +26°C° 0 mm 3 m/s 640 mmHg 20%
13:00 +27°C° 0 mm 3 m/s 640 mmHg 19%
14:00 +27°C° 0 mm 3 m/s 640 mmHg 19%
15:00 +25°C° 0 mm 3 m/s 639 mmHg 24%
16:00 +21°C° 0 mm 2 m/s 638 mmHg 30%
17:00 +18°C° 0 mm 2 m/s 637 mmHg 35%
18:00 +17°C° 0 mm 2 m/s 637 mmHg 36%
19:00 +16°C° 0 mm 1 m/s 637 mmHg 37%
20:00 +15°C° 0 mm 1 m/s 637 mmHg 38%
21:00 +15°C° 0 mm 1 m/s 637 mmHg 40%
22:00 +14°C° 0 mm 1 m/s 637 mmHg 42%
23:00 +14°C° 0 mm 1 m/s 637 mmHg 44%
Arată mai mult

Formular de consimțământ

Meteoprog și furnizorii noștri de servicii pot stoca și accesa date personale, precum cookies, identificatori de dispozitiv sau alte tehnologii similare pe dispozitivul dumneavoastră și procesa astfel de date pentru a personaliza conținutul și reclamele, dar și pentru a oferi caracteristici de social media și pentru a analiza traficul.

  • Stocarea și/sau accesarea informațiilor pe dispozitivul dumneavoastră

    Cookies, identificatori de dispozitiv sau alte informații pot fi stocate sau accesate pe dispozitiv în scopurile indicate mai sus.

  • Reclame și conținut personalizat, evaluarea reclamelor și a conținutului, informații despre audiențe și dezvoltarea produselor

    Reclamele și conținutul pot fi personalizate pe baza unui profil. Pot fi adăugate date suplimentare pentru a personaliza mai bine reclamele și conținutul. Performanța reclamelor și conținutului poate fi măsurată. Pot fi obținute informații despre utilizatorii care au văzut reclamele și conținutul. Aceste date pot fi utilizate pentru a dezvolta sau îmbunătăți experiența utilizatorilor, sistemele și software-ul.

Dând clic pe ‘Sunt de acord’, permiteți utilizarea cookie-urilor menționate, a identificatorilor de dispozitiv, balizelor web sau altor tehnologii similare. Setările pot fi modificate din browser-ul dispozitivului dumneavoastră.

În anumite scopuri, interesele legitime pot prima asupra consimțământului. Puteți citi mai multe informații în acest sens în Politica privind Confidențialitatea Datelor și Cookie.